sat.trackr.live / text

‹ back to catalog

DMC3-FM1

NORAD 40715 · 2015-032A

PAYLOAD ACTIVE UNKNOWN

§ Identity

Operator
Country
UK
Launch date
2015-07-10
Launch site
SRILR
Launch vehicle
Mass (kg)
RCS (m²)
1.57

Purposes: earth_obs

External: N2YO · Heavens-Above · Gunter

§ Orbital elements

Epoch: 2026-05-25T04:07:49.788192Z

Period
96.92 min
Inclination
97.6490°
Eccentricity
0.0006691
Mean motion
14.85706695 rev/d
Perigee alt
606.7 km
Apogee alt
616.0 km
Semi-major
6,989.5 km
B*
6.0334e-5
RAAN
11.2462°
Arg perigee
120.0486°
Mean anomaly
240.1394°
Rev number
58,649

§ Raw data

DMC3-FM11 40715U 15032A   26145.17210403  .00000472  00000+0  60334-4 0  99962 40715  97.6490  11.2462 0006691 120.0486 240.1394 14.85706695586499

JSON: /api/v1/satellites/40715 · /tle

For live sub-satellite position, see the globe view (requires WebGL).

§ Visibility from observer

Set your observer location to see the next 7 days of passes ≥ 10°. The values pass through the URL so the page stays shareable.

No JS? Fill the form by hand. The geolocation button needs JavaScript.

§ Radio — SatNOGS DB

ModeDescriptionDownlinkUplink
FM Mode X (375MHz) 8.213 GHz
BPSK Telemetry 2.230 GHz

2 transmitters · refreshed weekly from db.satnogs.org